Weather History for KROC - July, 2013

Change the Weather History Date:

Tuesday, July 2, 2013

  Actual Average Record
Temperature  
Mean Temperature 70 °F 70 °F  
Max Temperature 78 °F 80 °F 99 °F (1931)
Min Temperature 62 °F 60 °F 45 °F (2001)
Degree Days  
Heating Degree Days 0 1  
Month to date heating degree days 0 2  
Since 1 June heating degree days 58 70  
Since 1 July heating degree days 0 2  
Cooling Degree Days 5 6  
Month to date cooling degree days 5 12  
Year to date cooling degree days 183 148  
Since 1 June cooling degree days 112 118  
Growing Degree Days 20 (Base 50)    
Moisture  
Dew Point 63 °F    
Average Humidity 81    
Maximum Humidity 93    
Minimum Humidity 69    
Precipitation  
Precipitation T in 0.10 in 1.12 in (1904)
Month to date precipitation 0.38 0.21  
Year to date precipitation 18.48 16.01  
Snow  
Snow 0.00 in 0.00 in 0.00 in ()
Month to date snowfall 0.0 0.0  
Since 1 June snowfall 0.0 0.0  
Since 1 July snowfall 0.0 0.0  
Snow Depth 0.00 in    
Sea Level Pressure  
Sea Level Pressure 30.07 in    
Wind  
Wind Speed 4 mph (NE)    
Max Wind Speed 15 mph    
Max Gust Speed 17 mph    
Visibility 9 miles    
Events Rain    
T = Trace of Precipitation, MM = Missing Value Source: NWS Daily Summary

Daily Weather History Graph

Daily Weather History Graph

Search for Another Location

Airport or City:

Trip Planner

Search our weather history database for the weather conditions in past years. The results will help you decide how hot, cold, wet, or windy it might be!

Date:

Astronomy

Jul. 02, 2013 Rise Set
Actual Time 5:35 AM EDT 8:53 PM EDT
Civil Twilight 5:00 AM EDT 9:28 PM EDT
Nautical Twilight 4:14 AM EDT 10:14 PM EDT
Astronomical Twilight 3:18 AM EDT 11:10 PM EDT
Moon 1:41 AM EDT (7/2) 4:02 PM EDT (7/2)
Length of Visible Light 16h 28m
Length of Day
15h 18m
Waning Crescent, 26% of the Moon is Illuminated
Jul 2
Waning Crescent
Jul 8
New
Jul 15
First Quarter
Jul 22
Full
Jul 29
Last Quarter

Hourly Weather History & Observations

Time (EDT) Temp. Dew Point Humidity Pressure Visibility Wind Dir Wind Speed Gust Speed Precip Events Conditions
12:54 AM 62.1 °F 59.0 °F 90% 30.06 in 10.0 mi NE 12.7 mph - 0.01 in   Light Drizzle
1:54 AM 62.1 °F 57.9 °F 86% 30.07 in 10.0 mi NNE 4.6 mph - 0.00 in   Overcast
2:45 AM 62.6 °F 59.0 °F 88% 30.05 in 10.0 mi NNE 8.1 mph - N/A   Overcast
2:54 AM 63.0 °F 59.0 °F 87% 30.05 in 10.0 mi NNE 10.4 mph - N/A   Overcast
3:54 AM 63.0 °F 59.0 °F 87% 30.05 in 10.0 mi NE 5.8 mph - N/A   Overcast
4:12 AM 62.6 °F 59.0 °F 88% 30.03 in 10.0 mi NE 6.9 mph - N/A   Overcast
4:54 AM 62.1 °F 60.1 °F 93% 30.04 in 10.0 mi NE 3.5 mph - N/A   Overcast
5:45 AM 62.6 °F 60.8 °F 94% 30.02 in 9.0 mi NE 4.6 mph - N/A   Overcast
5:54 AM 62.1 °F 60.1 °F 93% 30.03 in 9.0 mi NE 5.8 mph - N/A   Overcast
6:54 AM 63.0 °F 60.1 °F 90% 30.05 in 2.0 mi Calm Calm - N/A   Overcast
7:54 AM 64.0 °F 61.0 °F 90% 30.06 in 4.0 mi Calm Calm - N/A   Overcast
8:18 AM 64.4 °F 60.8 °F 88% 30.06 in 9.0 mi Calm Calm - 0.00 in Rain Light Rain
8:54 AM 64.9 °F 62.1 °F 90% 30.07 in 10.0 mi Calm Calm - 0.00 in   Overcast
10:54 AM 69.1 °F 63.0 °F 81% 30.07 in 10.0 mi Calm Calm - N/A   Overcast
11:33 AM 69.8 °F 64.4 °F 83% 30.07 in 10.0 mi Calm Calm - N/A   Overcast
11:54 AM 70.0 °F 64.0 °F 81% 30.07 in 10.0 mi Calm Calm - N/A   Overcast
12:27 PM 71.6 °F 66.2 °F 83% 30.07 in 10.0 mi South 4.6 mph - N/A   Overcast
12:54 PM 73.9 °F 66.9 °F 79% 30.06 in 10.0 mi Calm Calm - N/A   Overcast
1:47 PM 77.0 °F 68.0 °F 74% 30.05 in 10.0 mi Calm Calm - N/A   Overcast
1:54 PM 77.0 °F 66.9 °F 71% 30.06 in 10.0 mi North 6.9 mph - N/A   Mostly Cloudy
2:13 PM 77.0 °F 68.0 °F 74% 30.05 in 10.0 mi NNE 4.6 mph - N/A   Mostly Cloudy
2:54 PM 75.9 °F 66.9 °F 74% 30.06 in 10.0 mi NNE 11.5 mph - N/A   Scattered Clouds
3:54 PM 75.0 °F 66.0 °F 73% 30.06 in 10.0 mi NNE 10.4 mph - N/A   Mostly Cloudy
4:54 PM 72.0 °F 64.9 °F 78% 30.06 in 10.0 mi NNE 11.5 mph - N/A   Mostly Cloudy
5:54 PM 72.0 °F 64.0 °F 76% 30.06 in 10.0 mi NNE 10.4 mph - N/A   Mostly Cloudy
6:54 PM 71.1 °F 64.0 °F 78% 30.08 in 9.0 mi ENE 6.9 mph - N/A   Overcast
7:54 PM 70.0 °F 64.0 °F 81% 30.10 in 10.0 mi Calm Calm - N/A   Overcast
8:35 PM 69.8 °F 64.4 °F 83% 30.10 in 10.0 mi Calm Calm - 0.00 in Rain Light Rain
8:54 PM 70.0 °F 64.0 °F 81% 30.10 in 10.0 mi Calm Calm - 0.00 in   Mostly Cloudy
9:54 PM 69.1 °F 64.9 °F 87% 30.10 in 10.0 mi North 3.5 mph - 0.00 in Rain Light Rain
10:54 PM 68.0 °F 66.0 °F 93% 30.12 in 7.0 mi SE 4.6 mph - 0.00 in   Overcast
11:07 PM 68.0 °F 66.2 °F 94% 30.11 in 7.0 mi ESE 3.5 mph - N/A   Mostly Cloudy
11:54 PM 68.0 °F 64.9 °F 90% 30.10 in 7.0 mi Calm Calm - N/A   Mostly Cloudy